Location: Dover
(39.1580°N, 75.5250°W)
Time: 22:46:09
(UTC-04:00)

SeaSat 1 - Visible Passes

Search period start: 24 October 2014 00:00
Search period end: 02 November 2014 23:00
Orbit: 747 x 749 km, 108.0° (Epoch: 23 October)

Date Brightness Start Highest point End Pass type
(mag) Time Alt. Az. Time Alt. Az. Time Alt. Az.
24 Oct 5.2 18:57:54 10° NNW 18:59:51 12° NW 19:01:48 10° WNW visible
26 Oct 5.3 19:13:01 10° NNW 19:14:20 11° NW 19:15:39 10° WNW visible
27 Oct 4.5 18:29:24 10° N 18:33:24 25° NW 18:37:23 10° WSW visible
29 Oct 4.7 18:44:06 10° N 18:47:55 23° NW 18:51:43 10° WSW visible
31 Oct 4.8 18:58:49 10° N 19:02:25 21° NW 19:06:00 10° W visible
02 Nov 4.9 18:13:33 10° N 18:16:55 19° NW 18:20:16 10° W visible
